Погода в Сан Карлос Нуэво Гуаймасе

Мексика     27°56′43″N   111°03′13″W
темп.,
°C
ветер,
м/с
пор.,
м/с
влажн.,
%
обл.,
%
осадки,
мм/ч
давл.,
гПа
погр.,
м
6 мая, чт
чт623:00+22ююз11570 0.0 101413
02:00+21ююз11690 0.0 101332
05:00+20в11700 0.0 101437
08:00+23вюв22490 0.0 1016281
11:00+27ю44330 0.0 1016721
14:00+27ююз54390 0.0 1014594
17:00+27юз33370 0.0 1012415
20:00+24юз22500 0.0 101249
7 мая, пт
пт723:00+23зюз22530 0.0 101316
02:00+22зсз22550 0.0 101216
05:00+21ссз22540 0.0 101220
08:00+25сз00430 0.0 1013204
11:00+28юз32310 0.0 1013870
14:00+29юз54300 0.0 1011814
17:00+30зюз45250 0.0 1010730
20:00+25юз33430 0.0 101051
8 мая, сб
сб823:00+24зюз22510 0.0 101124
02:00+23ссз22520 0.0 101013
05:00+22с22490 0.0 101113
08:00+25в11410 0.0 1012305
11:00+28ю55340 0.0 1012883
14:00+28ююз55310 0.0 1010725
17:00+28ююз44290 0.0 1009564
20:00+24ююз23530 0.0 101099
9 мая, вс
вс923:00+23ююз12580 0.0 101116
02:00+22юв22610 0.0 101017
05:00+20юв23680 0.0 101180
08:00+23юв47550 0.0 1012546
11:00+27ююв78450 0.0 1012846
14:00+27ююз6844100 0.0 1010754
17:00+26ю453291 0.0 1009472
20:00+23ююв2255100 0.0 101067
10 мая, пн
пн1023:00+23вюв2265100 0.0 101049
02:00+21в227917 0.0 100972
05:00+20в12811 0.0 101085
08:00+23вюв445810 0.0 1011554
11:00+26ю553785 0.0 1011839
14:00+27ююз553867 0.0 1010714
17:00+27ююз44250 0.0 1008527
20:00+23ююз12420 0.0 101028